Regional Weather Roundup
Issued by NWS Newport/Morehead, NC

Current Version | Previous Version | Text Only | Print | Product List | Glossary Off
Versions: 1 2 3 4 5 6 7 8 9 10 11 12 13 14 15 16 17 18 19 20 21 22 23 24 25 26 27 28 29 30 31 32 33 34 35 36 37 38 39 40 41 42 43 44 45 46 47 48 49 50
000 ASUS42 KMHX 262025 RWRMHX WEATHER ROUNDUP FOR EASTERN NORTH CAROLINA NATIONAL WEATHER SERVICE NEWPORT/MOREHEAD CITY NC 400 PM EDT SAT MAY 26 2018 NOTE: "FAIR" INDICATES FEW OR NO CLOUDS BELOW 12,000 FEET WITH NO SIGNIFICANT WEATHER AND/OR OBSTRUCTIONS TO VISIBILITY NCZ015>017-031-032-045>047-102-103-262100- NORTH COAST CITY SKY/WX TMP DP RH WIND PRES REMARKS EDENTON FAIR 88 72 57 SW10 29.91F ELIZABETH CITY FAIR 87 71 58 SW14G23 29.90F KITTY HAWK MOCLDY 82 70 66 S6G16 29.91F MANTEO FAIR 83 72 67 SW21 29.92F $$ NCZ045>047-081-094-103-104-262100- CENTRAL COAST CITY SKY/WX TMP DP RH WIND PRES REMARKS FRISCO FAIR 81 73 76 SW14G21 29.96F $$ NCZ095-097-098-100-101-262100- SOUTHERN COAST CITY SKY/WX TMP DP RH WIND PRES REMARKS BEAUFORT FAIR 80 73 79 S18 29.97F CEDAR ISLAND NOT AVBL JACKSONVILLE FAIR 83 72 69 S16G23 29.93F PINEY ISLAND NOT AVBL WILMINGTON FAIR 84 67 56 SW14 29.95F $$ NCZ011>013-027>030-043-044-078>080-089-090>093-098-262100- COASTAL PLAIN CITY SKY/WX TMP DP RH WIND PRES REMARKS AHOSKIE FAIR 84 67 57 S6 29.90S CLINTON FAIR 87 73 64 S8 29.92F ELIZABETHTOWN FAIR 86 71 60 S15 29.92F GOLDSBORO FAIR 87 69 55 S10 29.89F GREENVILLE FAIR 88 68 51 SW14 29.92F HAVELOCK MOSUNNY 84 73 69 S16G26 29.96F KENANSVILLE FAIR 86 70 58 SW6 29.92F KINSTON PTSUNNY 88 70 55 SW13 29.90F NEW BERN FAIR 83 72 69 S12G24 29.94F RICHLANDS PTSUNNY 86 73 65 S16G23 29.93F ROCKY MOUNT FAIR 86 69 56 S13G18 29.90F WASHINGTON CLOUDY 86 71 60 CALM 29.90F WHITEVILLE FAIR 84 70 63 S10G17 29.93F $$ AMZ130-135-150-152-154-156-158-170-250-252-270-ANZ085-086-088-633-658-670-262100- MARINE OBSERVATIONS STATION/POSITION TIME TEMP WIND PRES WAVE SWELL AIR SEA DIR/SP/G HT/PER HT/PER (UTC) (F) (DEG/KT/KT) (MB) (FT/S) (FT/S) CHESAPEAKE LIGHT NOT AVBL 64 E VA BEACH 1950 73 70 190/ 12/ 14 1013.6 3/ 9 2/ 9 DUCK 2000 84 61 230/ 12/ 14 1012.4 2 E DUCK 2000 71 N/A 1/ 9 OREGON INLET 2000 79 81 190/ 21/ 24 1013.6 13E OREGON INLT 1948 73 N/A 2/ 9 2/ 9 HATTERAS CG 2000 80 77 210/ 12/ 15 1014.3 DIAMOND BUOY 2010 78 78 210/ 16/ 19 1014.9 CAPE LOOKOUT 2000 200/ 12/ 16 1015.1 BEAUFORT LAB 2000 79 80 210/ 11/ 18 1014.9 30 SE NEW RVR IN 2008 78 77 210/ 12/ 16 1014.9 30 SE NEW RVR IN 2000 77 N/A 3/ 8 27 SE WRIGHTSVLE 2008 78 78 200/ 12/ 17 1014.9 5 SE WRIGHTSVLE 2008 77 77 140/ 14/ 17 1013.8 225 S CAPE HAT 2010 79 180/ 8/ 10 1016.6 41 SE CHARLESTON 2000 77 180/ 10/ 12 1014.9 $$

USA.gov is the U.S. government's official web portal to all federal, state and local government web resources and services.